STARLINK-1356, 45564

Orbit data source: Space-Track

STARLINK-1356, 45564 is a payload satellite owned by SpaceX/Seattle (US) in LEO that was launched on Wed, 22 Apr 2020 UTC via an FALCON 9 launch vehicle from the Air Force Eastern Test Range (AFETR). Payloads include a variety of satellites, spacecraft, and rockets equipped with specific instruments for various scientific and technological missions. These include communications satellites like Starlink; space stations such as the ISS; scientific satellites like the Hubble; Earth observation satellites from companies like Planet Labs, Umbra, and HawkEye 360; GPS; miniature CubeSats for education and research; and military/defense satellites.

Loading next visibility...
STARLINK-1356 details
Identifier
45564, 2020-025AK
Orbit
LEO
Last TLE update1 day ago
Origin
Flag of USSpaceX/Seattle (US)
ManufacturerSpaceX/Seattle
MissionOperational Commercial Communications
Bus & MotorSTARLINK, Unknown motor
Mass260 kg wet, ~248 kg dry
Launch date (UTC)
2020-04-22 (5 years ago)
Launch vehicle
FALCON 9
Launch site
Air Force Eastern Test Range (AFETR)
Object type
Payload
Rocket body
Debris
Shape & HBRBox + 1 Pan, 8.86 m
Radar Cross Section13.562 m², Large (>1 m²)

Expand to show TLE details & history

TLE from 1 day ago
0 STARLINK-1356
1 45564U 20025AK  24360.45711208  .00024685  00000-0  16705-2 0  9992
2 45564  53.0535 258.4094 0001547  93.3283 266.7883 15.06395253259166
Epoch: 2024-12-25T10:58Z
Definitive object data (Epoch: 2024-12-25T10:58:14.483Z)
Latitude-0.00003°
Longitude-0.60156°
Altitude548.165 km
Speed7.589 km/s
True Right ascension17h 13m 38s
True Declination0° 00' 00"
Sunlit
Object was in daylight at TLE epoch
Visualization TLE readout
Latitude2.30208°
Longitude173.05993°
Altitude547.504 km
Speed7.59 km/s
Apparent Right ascension02h 30m 56s
Apparent Declination-23° 37' 33"
Sunlit
Object is in full shadow
Visualization observer readout
Local Sidereal Time10:59:38
Azimuth273.75° WNW
Elevation-42.981°
Doppler factor1
Orbital elements
Apogee altitude548.568 km
Perigee altitude546.426 km
Semi-major axis6,925.634 km
Eccentricity0.0001547
Inclination53.0535°
RAAN258.4094°
Arg. of periapsis93.3283°
True anomaly266.7706°
Mean anomaly266.7883°
Eccentric anomaly266.77945°
Mean motion3.76577 °/min
BSTAR0.0016705
Orbital period95.6 mins
Loading maneuver chart data...
Loading historical data...
Loading historical data...
Loading historical data...
Loading historical data...
Loading historical data...
Loading historical data...
Loading historical data...

STARLINK-1356 Visibility forecast

Observer location: undefined°, undefined

Span
Click to sort rows by Start time (UTC) header in descending order
Start Az.
Max El. time (UTC)
Max El. Az.
Max El.
End time (UTC)
End Az.
6 mins2024-12-26 18:58:15.410Z179.987° S2024-12-26 19:01:15.410Z121.133° SE23.436°2024-12-26 19:04:15.410Z73.577° E
5 mins2024-12-26 20:38:15.410Z267.037° W2024-12-26 20:40:15.410Z326.846° NNW35.317°2024-12-26 20:43:15.410Z35.438° NE
5 mins2024-12-27 01:40:15.410Z344.432° N2024-12-27 01:42:15.410Z35.533° NE27.729°2024-12-27 01:45:15.410Z90.15° ESE
6 mins2024-12-27 03:19:15.410Z287.287° WNW2024-12-27 03:21:15.410Z242.396° WSW33.17°2024-12-27 03:25:15.410Z156.586° SSE
|